カタログに戻る

FENGYUN 1C DEB

運用中SSO
NORAD 30816·DEBRIS·🇨🇳 China

打ち上げ May 10, 1999 から Taiyuan Satellite Launch Center

Loading…

次のパス (今後24時間)

TLE

最新Source: Space-Track

元期: Sep 14, 2026, 04:42 UTC

1 30816U 99025AVA 26257.19594987  .00001961  00000-0  94024-3 0  9996
2 30816  98.8980 333.8446 0050008 347.3981  39.0832 14.19516745  2999

AllMySatでFENGYUN 1C DEBをリアルタイム追跡

Download on the App Store